Theta_e
291 291 291 291 292 292 292 292 293 293 293 294 294 294 294 294 295 294 296 297 299 301 302 303 304 304 305 303 302 303 303 303 304 305 306 306 307 309 309 310 310 310 309 310 309 308 308 306 305 304 305 305 305 304 304 303 301 300 297 296 297 294 293 291 291 291 291 289 285 286 287 286 288 287 287 288 288 288 287 287 289 290 290 290 292
290 290 290 290 291 291 292 292 292 291 291 292 292 293 293 293 293 293 294 295 295 296 299 299 299 299 301 299 299 299 299 298 298 299 300 302 303 303 304 306 307 307 306 307 307 307 306 305 304 304 304 304 303 301 300 299 299 297 296 295 294 295 294 290 290 292 290 290 289 285 283 284 287 287 287 288 288 287 288 288 288 289 289 289 290
289 289 289 289 289 290 291 291 291 291 291 291 292 292 292 292 293 293 293 293 294 295 296 296 297 298 298 296 297 295 295 296 296 296 297 298 299 299 300 301 302 303 304 305 306 305 304 303 302 301 301 301 301 301 300 299 298 298 296 297 296 291 292 291 290 292 293 287 287 287 284 284 285 284 286 287 288 287 288 288 289 288 289 288 288
286 287 287 288 288 289 289 290 290 291 290 291 291 291 292 292 292 292 292 293 293 294 295 294 295 295 296 296 296 296 294 295 296 296 295 295 295 296 296 297 299 299 299 299 300 300 300 300 296 296 296 297 298 299 299 298 297 297 296 296 296 296 292 291 291 292 291 290 290 288 284 281 283 284 283 283 286 288 288 288 288 288 288 287 286
285 286 286 287 287 287 287 289 289 289 290 290 290 290 291 291 291 291 292 292 292 293 293 294 295 295 295 295 295 294 295 294 294 293 293 293 293 293 293 294 295 296 296 297 297 297 296 296 296 295 294 294 295 296 296 296 296 295 295 295 295 296 296 294 291 291 291 292 293 285 286 285 282 282 280 283 281 285 286 287 287 288 288 287 287
285 285 285 286 286 286 287 287 288 288 289 289 290 290 290 291 291 291 291 291 291 292 293 293 293 292 292 292 291 291 290 290 290 289 290 290 291 291 292 292 293 293 293 293 294 294 295 295 294 295 293 291 292 294 293 293 293 293 293 294 294 294 295 295 293 291 291 291 291 290 291 289 286 283 283 284 280 284 284 284 286 287 285 285 286
285 285 285 285 285 286 286 286 287 287 288 289 289 290 290 290 290 290 290 290 291 291 292 292 291 291 291 290 289 289 288 288 289 289 289 290 291 291 291 291 291 291 291 291 291 292 292 293 293 293 293 292 290 291 291 291 292 292 293 293 293 294 293 292 292 293 291 290 291 291 289 287 287 287 287 285 285 281 281 282 285 285 285 285 286
284 284 285 285 285 285 285 286 286 286 287 288 288 289 289 289 289 290 290 290 290 290 290 291 290 290 289 289 289 288 288 288 289 289 289 290 290 289 290 290 290 290 290 290 290 290 290 291 291 292 292 292 291 291 291 291 290 290 291 291 291 291 291 291 292 293 291 291 290 290 290 290 287 286 286 286 285 283 285 282 282 283 284 285 286
283 283 284 284 284 284 285 285 285 286 287 287 287 287 288 288 288 288 288 289 289 290 290 290 290 289 289 288 288 288 288 288 288 289 288 289 288 288 288 288 289 289 289 289 289 289 289 289 290 290 291 291 291 291 290 289 289 289 289 289 289 289 289 290 290 290 290 290 290 289 289 289 289 288 286 286 285 284 284 284 284 281 281 283 285
284 284 284 284 284 284 284 284 285 285 286 286 286 287 287 287 287 287 287 287 287 288 288 288 288 288 287 287 287 287 287 287 287 287 287 287 286 287 287 287 287 287 288 288 288 288 288 288 288 288 289 289 290 290 290 290 290 289 288 287 287 287 288 288 288 288 289 290 290 290 289 287 286 286 285 285 285 285 284 284 285 284 284 285 284
283 283 283 283 283 283 284 284 284 285 285 286 286 286 286 287 286 286 286 287 287 286 286 286 286 286 286 285 285 285 285 285 285 285 285 285 284 285 285 285 286 286 286 286 286 287 287 287 287 287 288 288 288 289 289 289 289 289 288 286 286 286 287 287 287 287 288 288 287 287 288 289 288 287 286 284 285 284 284 284 284 284 284 285 285
283 282 283 283 283 283 283 283 283 284 284 285 285 285 286 286 286 286 286 286 286 286 286 286 286 286 285 285 284 284 284 284 283 283 283 283 283 283 284 284 284 284 285 284 285 285 286 285 286 286 286 286 287 287 288 288 288 288 288 287 287 286 285 285 285 286 286 287 286 287 287 288 289 288 289 289 287 286 286 286 286 286 285 285 283
282 281 281 282 282 282 282 282 282 283 283 283 284 284 284 285 285 285 285 285 285 285 286 285 286 285 285 285 284 285 284 284 283 283 283 283 283 283 283 283 283 283 284 284 284 284 285 284 285 285 285 285 285 286 286 286 286 287 287 287 287 286 286 285 285 285 286 285 286 286 286 287 287 287 288 288 288 287 286 285 285 285 285 286 285
282 281 281 281 281 282 282 282 282 282 282 282 283 283 283 284 284 284 284 284 284 285 285 285 285 285 285 285 285 284 284 284 284 284 284 284 284 283 284 284 283 283 284 284 284 284 285 285 285 285 285 285 285 285 285 285 285 285 285 285 286 286 286 284 284 284 284 284 285 285 285 286 286 286 286 286 286 285 285 284 284 284 285 284 285
281 281 282 282 282 282 283 283 282 282 282 282 282 283 283 283 284 283 283 283 283 284 284 284 284 285 285 286 286 285 284 284 284 285 284 284 284 283 284 284 283 284 284 284 284 284 284 284 284 284 284 285 285 285 285 285 285 285 285 284 285 285 285 284 285 283 285 284 284 284 285 285 285 286 284 285 285 285 285 285 284 283 284 285 284
282 282 282 282 282 283 283 283 283 283 282 283 283 284 284 284 284 284 283 282 283 283 284 284 284 284 285 284 285 285 284 283 283 283 283 284 283 283 282 283 283 283 283 283 283 282 282 282 282 282 282 282 283 283 283 284 284 284 284 284 284 286 285 285 285 284 284 284 283 283 283 283 284 284 285 285 284 285 284 283 283 283 282 281 283
281 281 280 281 282 283 283 283 284 284 283 284 284 284 283 283 282 282 282 282 283 283 283 283 283 284 283 283 283 282 282 281 281 280 281 280 281 281 281 281 281 282 283 283 282 281 281 281 281 281 282 282 281 281 281 281 282 281 281 282 282 284 284 284 285 284 284 283 283 282 283 284 284 284 284 284 283 283 283 283 283 283 284 281 281
281 281 281 281 282 282 282 283 283 284 284 284 284 284 284 284 284 284 284 284 285 285 285 285 284 284 284 283 283 282 281 281 282 280 280 280 279 280 279 280 279 280 281 281 280 279 279 280 280 280 280 279 279 279 279 280 280 280 280 280 281 281 282 282 283 284 284 284 284 283 283 283 283 283 283 283 283 283 283 282 283 283 283 282 282
281 281 281 282 282 282 283 284 285 285 284 283 284 284 283 283 282 282 282 283 284 285 285 285 285 285 284 284 283 283 283 282 281 281 280 280 280 280 279 279 280 280 280 280 279 280 280 280 279 279 278 278 278 278 278 278 278 279 279 280 280 280 280 280 281 282 283 283 283 283 283 283 283 283 283 283 283 282 282 282 282 282 282 282 282
282 283 283 284 284 284 284 284 284 284 285 285 285 285 285 285 284 284 284 284 284 284 284 284 284 284 283 281 280 280 280 281 280 280 281 281 280 280 279 279 279 279 278 278 278 279 279 279 279 279 280 280 279 279 278 278 278 278 278 279 279 278 278 279 280 281 281 281 281 281 282 282 283 282 282 282 283 283 283 282 282 282 282 282 281
284 284 284 284 283 282 283 283 283 283 283 283 283 283 283 283 283 283 283 283 283 282 283 283 283 282 282 282 281 281 281 281 280 280 280 279 279 280 280 279 279 278 278 278 278 277 278 278 278 279 279 279 279 279 279 279 279 279 279 278 279 278 278 279 279 279 280 280 280 280 281 281 281 281 282 282 282 282 283 283 282 281 281 281 281
285 285 284 284 283 283 283 282 282 283 283 283 283 283 283 284 282 281 282 281 281 281 281 282 281 281 281 280 280 279 279 280 279 279 280 280 279 279 279 279 278 279 279 279 279 278 278 278 278 278 278 278 278 278 278 278 278 278 279 280 279 278 278 278 278 278 279 280 280 279 280 280 281 280 281 281 282 282 282 282 282 282 281 281 281
285 285 284 284 284 284 283 283 283 282 282 282 281 281 281 280 280 279 280 279 279 279 279 279 279 279 279 278 278 279 278 278 278 278 278 279 279 279 278 278 279 279 279 278 279 279 279 278 278 278 278 278 278 278 278 278 278 278 278 278 279 278 278 278 278 278 278 279 279 279 279 280 281 280 280 280 281 281 282 281 282 282 281 282 282
285 284 283 283 282 281 281 281 281 281 282 282 281 280 280 280 280 279 280 279 279 279 279 279 278 278 278 278 278 277 277 277 277 278 277 278 278 277 277 277 278 278 278 278 277 278 278 277 278 278 278 278 278 278 278 278 278 278 278 278 278 278 278 277 278 278 278 278 278 278 279 279 279 279 279 280 280 280 280 280 281 281 281 282 282
283 283 282 282 281 281 281 280 280 280 280 281 281 281 280 281 280 279 279 279 278 278 278 278 278 278 278 277 277 277 276 276 276 277 277 277 277 277 277 277 277 277 277 277 278 277 277 277 278 278 278 278 278 278 278 278 278 278 277 277 278 277 278 278 278 278 279 278 278 278 279 279 279 279 279 279 279 279 280 280 280 281 281 281 282
281 281 281 281 281 280 280 280 279 279 280 279 279 279 279 278 278 278 278 278 278 277 277 277 277 277 277 276 276 276 276 276 276 276 277 277 277 277 277 277 277 277 277 277 277 277 278 277 277 278 277 278 278 278 278 278 278 278 277 277 277 277 277 277 278 278 278 278 278 278 278 279 278 278 279 279 279 279 279 279 279 280 280 281 281
281 280 280 279 279 279 280 279 279 279 278 278 278 278 278 278 277 277 277 277 276 277 277 277 276 276 276 276 276 276 276 276 276 276 276 276 276 276 276 276 277 276 276 276 277 277 277 277 277 277 277 277 277 277 277 277 277 277 277 277 277 277 277 277 278 278 278 278 278 278 279 279 279 279 279 279 279 279 279 279 279 280 280 280 280
279 279 279 279 280 279 279 279 278 278 277 277 277 277 277 277 278 278 277 277 278 277 277 277 277 277 277 276 276 276 276 276 276 275 276 276 276 275 276 276 276 276 276 276 276 276 277 276 276 276 277 277 276 277 277 277 277 277 277 277 277 277 277 277 278 278 278 278 279 279 279 279 279 279 279 279 279 279 279 279 279 280 279 279 279
278 279 278 279 279 279 278 277 278 277 278 277 277 277 277 277 277 277 277 277 277 276 276 276 276 276 276 276 276 276 276 276 276 276 276 276 276 275 275 275 275 275 276 276 276 276 276 276 276 276 276 277 277 277 277 277 276 276 276 276 277 277 277 278 278 278 278 279 279 279 279 279 280 281 283 283 283 283 281 279 280 280 279 279 279
279 279 279 279 278 277 277 277 277 277 277 276 277 276 277 277 276 276 276 276 276 275 275 275 275 275 275 275 275 275 275 275 275 275 275 274 274 274 274 274 274 274 274 274 274 274 274 274 274 274 275 275 275 276 278 280 280 279 279 279 279 278 278 278 277 277 278 278 278 279 279 282 282 283 283 284 284 285 285 284 282 281 280 279 279
278 278 277 276 276 277 277 277 277 276 277 278 277 277 276 276 276 276 275 275 274 274 274 274 274 274 274 274 274 274 274 273 274 273 272 272 272 272 272 271 271 271 271 272 272 272 272 272 272 272 272 273 273 274 277 279 280 281 279 277 277 277 277 277 277 277 276 277 277 278 278 280 281 281 281 283 284 284 284 285 285 286 285 282 280
276 275 275 276 276 277 276 276 276 276 276 277 277 276 276 275 275 275 275 274 274 274 273 273 273 273 273 273 273 272 272 271 271 270 270 269 269 269 269 269 269 269 270 270 270 270 271 271 271 271 271 271 271 274 277 277 278 279 279 276 276 276 276 276 276 276 276 276 276 277 277 278 278 279 279 279 281 283 283 284 284 285 285 286 286
275 275 276 275 276 277 276 276 276 276 276 276 276 276 275 275 274 274 273 273 272 273 272 272 272 272 272 272 271 269 268 268 268 268 268 267 267 267 266 267 267 267 268 268 268 268 268 269 269 268 269 269 269 273 274 275 277 277 278 277 274 274 274 274 274 274 275 275 275 276 276 277 277 279 279 278 278 278 281 282 283 284 284 285 286
275 275 276 276 276 276 276 276 276 276 276 275 274 274 274 274 273 272 272 271 271 271 270 270 270 270 270 270 268 267 267 266 266 266 265 265 264 264 265 265 266 266 266 266 266 266 266 266 267 267 267 267 267 269 273 274 275 276 276 276 273 273 273 273 273 273 273 273 274 274 274 275 275 276 276 277 277 277 277 278 278 278 279 280 283
276 276 275 275 276 276 276 276 276 275 274 273 273 272 272 272 272 271 271 270 269 269 269 270 269 269 268 266 266 265 265 264 264 264 263 263 263 263 263 264 264 264 264 263 263 263 264 264 264 264 264 264 264 269 272 273 274 274 275 275 272 272 271 271 271 271 271 272 272 273 273 273 274 274 275 276 276 276 277 277 277 277 278 278 279
277 277 276 275 276 277 277 276 275 273 272 272 271 271 270 271 270 270 269 269 268 267 268 268 267 266 265 266 264 263 263 262 262 262 261 262 262 262 261 262 262 262 262 263 263 263 262 262 262 262 262 262 263 269 270 271 272 273 274 271 270 269 269 269 269 270 270 271 271 271 271 272 272 273 275 278 278 276 276 276 276 276 277 278 278
277 277 277 277 277 277 276 274 272 272 271 271 270 270 269 268 268 268 267 267 267 266 267 266 265 265 264 264 263 262 261 261 261 260 260 260 261 260 260 261 260 261 261 261 261 261 261 261 261 261 261 261 261 265 269 270 271 273 272 268 268 268 268 268 268 269 269 270 270 270 271 271 271 271 275 278 279 279 275 275 275 276 276 277 277
276 275 275 276 275 275 273 272 271 270 270 270 268 268 267 266 266 266 266 266 265 265 265 264 264 263 263 262 262 261 260 260 259 259 259 260 260 260 260 260 260 259 259 260 260 260 260 260 260 260 260 260 261 264 268 269 271 271 271 268 267 267 267 267 268 269 269 270 270 273 273 272 272 272 276 278 279 277 275 275 275 275 275 276 277
276 276 276 275 274 273 272 271 270 268 269 267 266 266 265 265 266 265 265 265 265 265 264 263 263 263 262 261 261 260 260 259 259 259 259 259 259 259 260 260 259 259 259 259 259 259 258 259 259 259 262 261 260 262 267 268 269 270 269 267 267 267 266 266 267 267 268 268 268 270 272 272 271 272 276 277 278 277 275 275 275 275 274 274 276
275 275 276 274 272 271 269 269 268 268 267 266 265 265 263 264 264 265 263 263 264 263 263 263 263 262 260 260 260 259 259 258 258 258 258 258 259 259 259 259 258 258 258 258 258 258 257 258 259 259 259 260 260 260 262 268 269 270 271 267 267 266 265 265 266 266 266 267 267 268 269 273 274 275 276 277 277 277 275 275 275 274 274 274 276
275 275 275 272 271 270 269 268 267 266 266 265 264 262 263 264 263 263 262 263 263 263 262 262 261 260 259 259 258 258 258 258 258 258 258 258 258 258 258 258 257 257 257 257 257 257 257 258 258 259 259 259 260 260 261 267 268 270 271 270 266 266 266 266 266 266 266 266 267 268 269 272 274 274 275 275 276 276 276 273 273 273 274 276 278
274 274 272 270 268 267 266 266 265 265 264 263 262 261 262 261 261 260 262 262 262 262 261 259 259 258 258 258 257 257 257 257 257 257 257 257 258 257 257 257 257 257 256 256 256 257 257 257 257 258 258 259 260 262 261 265 268 269 270 271 268 267 268 267 267 267 267 268 268 268 268 271 274 274 275 275 276 276 277 274 273 277 278 279 276
271 270 269 269 267 266 265 264 264 263 264 263 259 259 259 260 259 261 262 261 261 260 260 258 258 257 257 256 256 256 256 256 256 256 256 256 257 256 256 256 256 256 256 255 256 256 256 256 256 257 258 258 259 260 264 263 267 270 271 271 272 270 272 269 268 267 267 268 268 269 269 272 274 274 275 276 277 277 276 275 277 278 278 278 278
269 269 268 266 266 265 264 264 264 263 262 261 258 258 259 258 259 261 261 260 258 258 257 256 256 256 255 255 255 255 255 255 255 255 255 255 255 256 256 256 256 256 255 255 255 255 255 255 255 256 257 258 259 259 262 266 266 269 270 272 272 273 273 270 269 268 268 269 268 268 269 273 275 276 276 277 277 276 274 276 277 277 277 276 274
268 266 265 265 265 264 264 263 263 262 260 258 258 257 257 256 260 260 258 258 257 256 255 254 254 254 254 254 254 254 254 255 255 255 255 255 255 255 255 255 255 255 255 254 255 255 254 254 255 255 256 257 258 259 259 262 267 269 270 271 272 272 273 273 269 269 269 269 271 274 275 276 275 276 276 276 274 274 275 275 276 276 275 272 272
265 264 264 263 263 263 262 262 262 261 260 258 258 258 255 258 259 258 257 257 255 253 253 253 254 254 254 254 254 254 254 254 254 255 254 255 255 255 255 255 255 255 254 254 254 254 254 254 254 255 256 257 259 259 260 260 263 265 267 269 271 272 272 272 272 270 273 274 275 275 275 275 274 273 270 270 270 271 274 275 275 275 271 271 270
264 263 262 262 262 262 261 260 259 260 258 258 257 256 257 257 256 258 257 255 253 252 253 253 253 254 254 254 254 254 255 255 254 255 255 255 255 255 255 255 255 254 254 254 254 254 255 255 256 257 258 259 260 261 262 263 263 263 264 265 266 266 269 271 269 268 270 268 269 270 270 272 273 274 274 274 274 273 271 270 269 269 269 269 269
263 262 262 261 261 261 259 259 259 259 258 257 256 255 255 255 255 256 253 252 252 252 253 253 253 253 254 254 254 256 256 255 255 255 255 255 255 255 254 254 255 255 255 255 255 256 257 257 258 259 259 260 262 263 264 264 265 265 265 266 266 266 266 266 266 267 267 267 268 270 271 270 269 269 269 269 268 268 269 269 269 269 269 269 271
261 260 260 261 259 258 258 256 257 258 257 255 254 254 254 255 256 254 252 251 252 253 253 252 253 253 253 255 255 255 255 255 255 255 255 255 255 255 255 256 258 258 258 257 257 257 258 259 260 260 261 262 263 263 265 269 268 271 269 269 268 268 268 268 270 273 271 270 270 269 268 268 267 267 267 267 267 267 267 268 268 268 268 268 268
261 259 258 257 255 255 254 254 256 256 255 254 254 254 254 256 253 253 252 251 252 252 252 252 253 253 253 254 255 255 254 255 255 255 255 255 259 262 262 260 260 264 267 268 268 264 265 265 265 266 266 264 264 266 271 273 273 273 272 273 273 274 274 273 274 275 273 269 267 267 266 266 266 265 265 264 264 264 264 265 265 268 267 267 267
259 256 255 255 255 255 254 254 255 255 254 253 254 253 254 254 255 255 253 252 251 252 253 253 253 253 254 255 255 254 255 254 255 255 254 254 254 256 262 264 265 265 266 268 268 269 269 270 267 265 267 270 271 271 272 272 273 273 273 274 273 273 274 275 275 271 269 267 266 264 264 263 263 262 262 262 263 263 263 263 263 264 265 266 267
Wind_Speed
5 6 7 9 10 10 9 9 9 11 13 12 13 13 12 10 11 12 8 9 9 8 8 7 7 6 8 9 7 7 7 8 9 8 8 8 9 8 8 6 5 5 5 4 5 4 4 3 3 3 2 1 1 2 2 2 1 0 0 1 3 3 3 2 0 2 1 5 3 5 7 5 6 4 6 6 7 7 3 5 6 7 7 6 6
7 9 10 10 11 11 10 10 12 15 13 13 13 11 11 12 12 10 9 9 9 7 6 7 5 4 7 6 7 7 8 9 8 9 8 8 10 10 9 8 7 6 5 4 5 4 4 4 4 2 2 1 1 1 2 1 0 0 0 1 0 2 3 2 2 2 1 4 6 6 5 5 6 6 7 9 8 5 6 7 8 7 8 7 5
8 8 9 9 10 11 9 10 10 9 10 11 11 12 13 12 11 10 10 9 9 8 7 7 5 5 6 5 5 6 5 4 6 6 7 8 10 10 10 9 8 8 7 6 5 5 4 4 3 1 1 1 0 0 0 0 0 2 2 3 2 0 2 0 4 6 4 1 1 3 6 6 5 3 5 6 6 6 6 7 8 7 10 7 6
9 8 9 9 8 9 9 10 9 10 11 12 12 12 10 11 11 11 10 10 9 9 7 4 5 5 7 7 8 9 5 4 7 10 11 12 11 10 11 9 9 9 9 8 7 7 6 5 3 3 2 1 0 0 0 2 0 0 1 2 1 4 2 3 4 4 3 2 6 3 3 1 9 4 4 5 6 9 8 10 7 8 9 6 4
7 8 9 9 11 11 10 9 9 11 11 12 11 10 8 11 10 10 10 10 9 10 10 7 7 8 5 7 7 7 9 11 11 11 9 8 10 12 9 9 9 9 9 9 8 8 6 7 6 4 3 2 1 0 1 2 2 2 3 3 3 4 5 3 1 3 5 5 3 0 4 2 5 6 5 6 1 2 5 7 5 6 7 6 5
5 6 7 7 7 8 10 11 11 11 12 10 8 9 9 10 11 11 10 10 11 10 10 10 11 11 11 11 11 9 10 11 11 9 10 10 8 4 10 11 11 10 10 10 10 8 8 7 6 6 5 5 2 1 1 1 1 1 2 3 3 4 5 4 3 2 6 6 5 3 2 6 5 4 5 10 3 4 3 2 5 6 4 4 5
6 6 6 8 8 9 10 11 9 11 9 6 7 9 10 10 10 11 10 9 10 10 10 9 11 11 12 10 9 9 8 7 4 5 6 6 6 10 9 10 11 11 11 10 10 10 9 9 8 7 6 6 3 3 3 3 3 2 1 1 3 2 1 4 6 4 1 4 6 8 7 3 1 4 8 5 13 4 1 3 5 5 5 5 7
4 5 6 6 7 8 9 8 8 8 6 7 9 9 11 11 11 11 10 10 9 8 12 11 11 10 11 11 10 9 8 6 7 6 6 6 10 10 9 9 10 10 11 11 11 11 10 10 9 8 8 7 6 6 5 4 4 3 1 1 1 2 3 4 5 4 5 3 4 6 7 7 4 4 4 7 8 12 13 3 4 6 5 7 8
3 4 5 5 6 7 7 8 6 8 8 8 8 8 8 9 11 12 13 11 10 10 11 11 11 10 10 9 10 7 7 6 5 7 8 8 11 10 10 9 10 10 10 10 10 11 10 9 9 10 9 9 7 7 6 5 5 5 6 4 2 3 2 3 2 5 4 5 4 3 3 5 5 5 5 2 6 9 15 9 10 3 3 5 7
3 3 4 5 5 6 5 5 8 7 6 6 7 7 8 9 11 13 12 10 8 9 10 12 12 11 12 11 11 9 7 6 8 10 9 8 11 10 8 9 9 10 10 11 12 12 11 11 10 10 9 8 7 7 6 7 6 5 5 5 4 4 3 2 3 4 4 5 4 4 4 3 2 3 3 5 6 8 14 12 9 10 14 6 6
3 4 4 4 4 5 5 7 5 6 6 7 8 8 7 9 10 13 9 8 8 8 10 12 11 11 11 11 11 10 8 9 10 10 9 10 9 8 8 6 7 7 7 8 9 9 9 9 9 9 8 8 9 9 8 6 6 5 5 4 4 4 5 4 3 4 4 5 5 4 5 6 6 6 5 4 6 6 6 10 7 8 9 14 5
3 4 4 5 5 6 6 7 6 5 6 8 6 6 7 7 8 11 10 9 8 8 11 11 11 11 10 10 11 9 9 9 10 10 8 9 8 8 6 7 8 7 8 8 9 10 8 8 7 8 9 9 9 7 7 7 6 5 6 5 4 4 3 3 3 4 4 4 4 5 5 5 6 6 6 5 5 7 7 12 10 9 10 9 5
3 3 3 3 4 4 5 4 4 5 5 4 5 4 5 7 8 11 9 7 7 7 10 10 12 11 10 11 10 9 10 10 9 9 8 8 8 9 10 9 9 11 10 11 11 11 8 9 9 9 8 8 7 8 8 8 8 7 7 7 6 6 5 4 4 4 4 4 6 5 5 5 6 5 5 6 6 6 6 10 9 6 12 13 6
1 2 2 2 3 3 3 3 4 3 3 3 3 4 4 6 6 10 7 5 4 5 6 9 10 8 7 7 7 6 7 7 6 6 5 5 5 5 5 5 6 6 6 7 6 7 7 6 6 7 6 5 6 6 7 7 7 7 6 7 7 6 6 5 4 4 4 4 4 5 6 6 6 5 6 5 6 5 7 8 9 7 9 13 8
0 2 2 2 2 2 2 2 2 2 2 3 3 4 4 6 7 8 7 4 4 4 5 8 8 7 6 6 6 5 5 5 4 4 3 4 2 3 3 2 3 2 2 2 4 5 6 7 7 8 9 9 9 9 7 7 6 6 6 6 6 5 6 6 5 5 6 5 5 5 6 6 6 6 6 6 5 6 7 7 6 11 11 10 11
0 0 0 0 0 0 0 1 1 1 2 3 4 3 5 5 5 5 5 4 4 5 6 7 6 6 6 7 6 5 4 4 4 3 3 3 3 4 4 3 3 3 4 5 6 5 7 8 8 8 8 9 9 9 10 9 9 8 7 6 7 5 7 8 6 5 5 5 5 5 4 6 6 7 6 6 6 6 6 5 5 7 9 14 10
3 3 3 2 1 0 0 0 1 1 2 3 4 4 4 4 5 5 4 4 5 5 6 6 5 7 6 6 5 6 6 6 5 4 4 3 4 4 5 4 3 5 4 4 5 5 5 5 6 7 7 7 7 7 7 7 8 8 8 8 8 6 5 6 6 6 6 5 4 4 4 6 6 6 6 6 7 6 6 6 6 7 7 9 11
5 4 4 3 3 3 1 1 1 2 3 3 4 3 3 4 5 6 6 8 6 6 7 7 7 7 7 8 7 6 6 5 5 5 5 6 6 6 5 7 6 4 4 4 3 4 3 3 3 4 4 4 4 4 4 5 5 7 7 7 6 6 7 7 5 4 6 5 5 5 4 6 6 5 6 6 6 7 7 6 6 7 6 10 10
4 4 4 4 4 3 3 3 2 2 3 3 3 4 5 5 5 5 6 5 5 6 6 7 7 6 6 6 7 7 6 6 5 6 6 6 6 6 6 6 7 8 8 9 9 9 9 8 5 5 4 4 3 3 3 3 3 4 4 5 6 5 7 8 8 5 5 4 5 5 6 6 6 6 6 6 6 6 6 7 7 6 7 8 10
6 5 5 5 4 4 4 4 3 3 3 3 3 4 5 4 4 4 4 5 5 6 5 5 5 5 4 4 3 2 2 2 2 2 3 3 3 3 4 5 4 4 4 5 6 6 7 8 9 9 10 10 9 7 4 4 3 3 3 5 5 3 4 5 7 7 7 5 5 6 6 6 6 4 6 6 7 6 6 6 6 7 7 7 7
7 6 5 5 4 4 3 2 3 2 2 3 3 3 2 3 3 3 3 3 3 2 2 2 2 1 1 1 2 2 3 2 3 1 2 3 2 2 2 2 3 4 2 3 3 4 4 4 5 6 6 7 8 10 9 8 8 9 8 6 5 5 6 6 5 8 6 6 7 7 8 7 5 5 6 6 6 7 6 6 6 6 7 7 6
6 6 6 5 4 3 2 1 1 2 2 3 1 1 1 1 1 1 1 0 0 1 1 1 1 1 1 2 3 3 3 3 4 4 4 4 4 3 3 3 3 5 2 4 4 4 4 4 4 6 5 6 6 6 7 6 8 9 10 8 8 9 9 9 7 7 8 7 7 8 9 9 7 6 6 6 7 7 7 7 7 6 7 8 6
7 7 5 5 5 5 4 3 2 2 2 1 1 1 1 2 1 0 0 2 2 2 1 2 3 3 4 3 3 4 3 4 4 5 4 5 5 5 4 4 5 5 4 4 5 5 6 6 6 7 7 7 8 8 7 7 8 8 8 9 7 7 8 9 10 10 9 7 7 8 9 8 7 8 8 7 6 7 6 7 9 7 8 9 7
5 5 5 5 5 4 4 3 3 2 2 2 2 3 3 2 3 1 2 4 3 3 2 2 3 4 4 4 4 4 4 4 4 5 4 5 5 5 5 5 6 5 6 6 5 6 6 6 7 8 7 8 8 8 8 7 8 8 9 10 9 9 8 8 8 9 10 9 9 9 9 8 6 8 9 9 8 7 7 7 8 8 8 9 9
5 6 6 5 4 5 5 4 4 4 3 3 4 4 3 4 3 3 3 3 4 5 4 4 3 4 5 4 5 4 3 4 4 4 4 5 5 5 4 4 5 5 5 5 6 5 6 6 7 8 8 8 9 9 9 9 8 7 7 9 9 9 9 10 9 10 9 9 9 10 11 9 7 8 9 9 8 9 8 7 8 8 8 8 8
7 6 5 6 6 4 3 4 4 4 5 4 4 3 2 3 3 3 2 3 2 2 1 1 1 1 3 3 3 3 3 4 4 4 5 5 6 5 6 5 5 7 7 5 6 6 6 7 8 8 8 9 9 9 9 10 9 8 8 8 8 8 9 9 10 10 10 9 9 10 10 10 9 9 10 10 9 10 9 9 9 9 9 8 9
9 8 6 4 3 5 6 5 5 5 4 2 1 1 1 1 1 1 1 1 1 1 1 1 1 1 2 2 3 3 3 3 3 4 4 4 4 4 4 5 5 5 6 6 6 6 6 6 8 8 8 9 10 9 9 9 9 8 9 9 10 10 10 10 10 11 11 11 11 10 11 10 10 10 11 11 10 10 9 11 10 10 9 8 9
4 4 5 6 7 6 5 5 4 4 3 3 2 2 2 1 1 0 1 1 0 1 1 2 1 1 1 3 3 3 4 4 3 3 3 3 3 4 4 4 4 5 5 6 6 7 7 5 7 7 8 7 8 10 9 8 8 8 9 9 10 11 11 11 11 11 11 12 12 12 12 12 12 11 11 11 10 11 9 10 9 9 9 9 9
5 6 6 6 7 6 5 4 5 4 5 3 3 2 2 3 3 2 2 2 1 3 3 3 4 4 4 4 4 4 4 4 5 5 5 5 5 5 5 5 5 6 6 6 7 7 9 9 9 8 9 8 9 9 8 6 6 8 7 8 10 10 11 11 12 12 12 12 12 12 12 12 14 16 17 16 15 14 11 11 11 9 9 9 10
7 7 7 7 6 4 5 5 4 5 3 2 3 3 3 3 3 2 3 2 2 3 4 4 5 4 4 4 4 4 4 5 5 6 6 7 7 7 8 8 8 7 8 8 8 8 8 9 11 11 10 9 9 8 10 18 17 12 11 10 10 11 11 12 13 13 14 13 13 12 12 18 21 21 22 21 22 23 22 16 14 12 10 10 10
6 7 5 4 5 4 4 5 5 5 5 5 4 4 3 3 2 3 3 3 3 5 5 5 4 3 3 4 4 4 4 5 5 6 6 7 8 8 9 9 10 9 10 10 9 11 10 9 10 11 12 11 10 9 19 20 21 23 15 11 12 12 12 12 12 13 14 14 13 12 12 13 15 18 18 23 22 24 24 25 25 23 18 14 12
6 4 3 4 5 5 4 4 4 4 4 4 4 3 3 3 3 4 4 4 6 5 4 4 4 5 4 5 4 4 5 5 5 6 6 6 7 7 8 8 9 10 10 9 10 10 10 10 10 11 12 12 12 16 22 22 23 24 22 15 12 12 12 12 12 13 12 12 12 12 11 10 10 13 13 14 17 20 23 24 25 25 26 28 25
4 4 5 5 5 5 5 4 3 4 4 3 4 4 4 3 4 3 3 3 3 3 3 4 4 4 5 5 5 5 5 5 5 6 6 7 8 9 8 9 10 9 9 10 11 11 11 10 10 11 12 12 12 19 22 24 24 25 25 21 11 11 12 12 13 12 13 12 11 12 12 11 11 19 16 13 14 15 17 22 24 26 26 27 27
4 5 6 6 4 4 4 4 4 4 4 4 4 5 3 3 2 1 2 2 2 3 3 3 3 3 4 5 6 5 6 6 6 7 8 8 8 9 8 8 8 9 9 10 9 11 10 9 9 10 12 13 13 17 23 25 24 25 26 22 13 13 12 13 14 14 13 14 14 12 13 13 12 11 11 14 14 15 15 15 14 14 14 16 21
6 5 4 4 6 5 5 4 5 5 4 5 5 3 2 2 1 2 3 4 4 3 3 3 3 3 4 3 5 4 5 6 7 7 8 8 8 9 9 8 8 9 10 10 10 10 10 8 9 9 11 13 13 21 23 25 24 25 26 23 14 12 11 12 13 13 14 14 14 14 14 16 13 14 12 17 16 15 15 15 15 16 15 15 15
7 7 6 5 7 9 10 7 4 5 4 4 3 2 2 2 2 3 3 4 4 4 4 2 3 3 4 5 4 5 5 6 7 7 7 9 8 8 9 9 9 9 8 7 8 7 9 10 9 10 12 14 13 22 23 24 25 25 27 16 14 13 12 12 13 11 11 12 13 13 13 14 16 15 21 30 27 21 19 19 19 17 16 15 16
6 7 7 6 7 7 6 7 6 5 5 4 2 2 3 3 3 3 4 3 3 3 2 2 3 4 4 4 4 6 6 6 6 7 8 7 8 9 8 6 10 9 9 9 9 9 8 10 12 10 11 14 14 18 22 25 25 26 21 13 14 13 13 13 13 12 13 12 12 12 12 14 14 16 22 27 28 26 18 19 19 18 17 16 17
5 1 2 4 4 6 6 8 8 6 4 4 3 3 3 3 2 2 2 2 2 2 1 2 3 3 4 4 4 5 7 7 7 7 8 8 7 7 7 6 8 11 11 9 9 10 9 7 10 11 10 13 15 18 24 25 26 26 22 15 13 13 14 14 15 15 13 13 15 23 21 17 17 17 23 27 28 23 17 18 18 18 18 18 17
6 8 8 7 7 8 8 7 7 7 4 3 3 3 3 1 0 0 1 1 2 0 2 2 3 3 4 4 4 5 6 7 8 8 7 9 9 8 8 7 7 8 10 9 8 9 9 8 7 11 18 17 14 17 23 24 26 26 20 14 13 12 14 14 13 14 13 13 15 16 24 24 22 23 30 28 29 23 17 17 16 17 18 20 17
4 3 6 9 9 10 6 7 6 6 4 3 3 2 1 1 1 1 1 2 1 0 2 2 2 4 3 4 4 5 6 7 9 9 8 8 8 8 8 8 9 7 9 9 8 8 10 10 8 10 11 11 13 14 16 25 25 25 25 16 12 12 13 15 14 14 14 13 14 14 17 22 24 24 25 27 27 28 20 17 15 15 17 20 15
8 7 7 8 6 7 8 6 6 6 4 3 3 2 1 1 1 1 3 1 0 1 2 2 3 4 4 5 4 4 8 7 7 9 9 8 7 9 10 9 10 9 8 9 9 9 10 10 8 10 10 11 10 14 15 24 25 25 26 22 12 13 13 14 13 14 13 12 10 11 11 18 25 28 28 29 28 28 26 20 18 17 17 20 22
3 7 8 7 6 7 8 7 5 5 4 3 3 2 2 1 1 2 2 0 0 2 2 3 3 4 5 5 6 6 6 7 7 7 9 10 8 8 9 9 9 9 10 10 10 8 10 10 9 8 10 11 13 20 16 21 25 26 25 27 17 13 15 14 14 12 12 13 14 13 12 19 26 26 27 28 30 28 29 19 18 27 32 35 26
8 6 4 8 8 7 7 7 4 3 4 3 3 1 0 1 2 2 0 0 1 2 4 3 4 5 5 6 6 6 8 6 7 7 9 11 9 8 9 8 9 10 10 11 10 9 10 10 10 8 9 9 10 12 21 18 23 26 26 26 27 22 26 18 14 13 14 14 14 14 13 24 28 29 29 29 29 31 26 19 29 30 29 32 28
3 5 7 6 8 7 7 5 4 4 3 3 3 1 0 1 3 1 1 2 2 2 3 4 4 5 6 6 6 7 7 7 7 8 8 9 10 9 8 7 8 9 9 10 8 9 9 10 9 11 9 9 9 10 15 23 21 26 26 27 26 27 27 17 14 12 12 12 11 12 15 27 29 29 30 29 29 27 21 28 29 30 30 27 15
8 7 4 4 8 9 7 5 4 3 3 2 1 1 1 3 2 2 2 3 3 3 4 4 5 6 6 7 6 6 7 7 7 7 8 8 9 7 9 6 7 9 9 10 10 8 9 10 9 11 11 10 10 10 10 15 24 25 26 27 27 28 27 27 18 13 14 13 19 29 31 30 29 29 31 30 25 25 29 28 28 28 26 13 10
7 6 6 6 7 7 7 6 3 4 2 1 0 0 1 3 3 3 3 3 3 4 4 5 6 6 7 7 7 7 7 7 7 6 7 7 8 9 8 8 7 9 8 9 10 8 9 9 10 11 11 11 11 10 10 10 12 16 19 25 29 28 28 28 27 21 27 32 31 31 33 32 29 25 18 14 12 13 23 28 29 27 13 11 11
8 7 8 7 7 7 6 5 3 2 2 0 0 1 1 2 3 3 3 3 4 4 5 5 6 7 6 6 7 7 7 5 5 5 5 6 7 7 7 8 9 9 9 9 10 9 9 10 11 11 11 12 11 10 10 10 10 10 11 13 15 16 23 25 19 15 19 18 22 23 19 24 23 29 29 27 25 23 18 15 11 10 10 10 9
6 7 6 6 5 6 5 4 3 1 0 1 1 1 2 2 3 3 3 2 3 4 5 6 7 6 6 6 7 8 8 7 6 5 7 7 7 6 7 8 10 10 9 10 10 10 10 11 12 13 13 12 12 11 11 11 12 12 12 11 12 12 11 10 12 12 13 14 14 17 20 14 13 12 12 10 10 10 11 11 10 9 9 10 14
8 4 4 5 4 4 3 2 1 0 0 2 3 3 3 3 3 3 2 3 4 4 4 5 6 6 7 6 6 6 7 7 8 7 6 6 9 8 8 9 11 10 8 9 11 13 14 14 12 9 9 8 11 11 9 15 18 23 20 16 12 11 9 10 12 21 15 10 8 9 8 9 8 10 9 9 8 9 9 9 11 10 9 9 10
5 5 5 5 5 4 3 2 1 0 1 3 4 3 3 3 3 3 2 3 4 4 4 6 5 6 6 6 6 6 6 7 7 8 9 8 10 17 14 10 11 18 23 24 20 14 12 11 11 10 10 10 9 12 24 30 28 28 29 31 28 29 28 22 25 32 21 11 8 8 8 8 10 9 11 11 10 9 9 10 9 13 13 10 10
6 6 4 4 4 3 3 2 2 1 2 3 4 4 4 4 3 3 2 3 4 4 5 6 6 6 7 7 7 7 7 6 7 8 7 9 11 12 17 18 18 20 21 24 23 25 26 24 17 13 13 24 26 27 28 27 28 28 29 29 30 30 30 30 29 19 10 7 9 9 10 10 10 10 10 12 11 11 10 10 10 9 9 11 13
Wind_Direction
346 0 13 16 16 13 11 13 10 28 28 25 35 34 34 32 39 34 16 23 33 32 35 37 39 42 50 53 60 35 37 39 39 24 32 28 23 19 18 23 35 45 44 51 55 58 54 57 59 50 53 60 26 352 9 345 7 358 161 168 211 240 265 197 104 113 355 304 288 263 277 251 249 239 245 245 236 232 229 246 251 254 253 249 244
15 23 17 21 19 17 19 23 19 29 16 23 29 28 31 32 38 30 21 28 30 27 41 57 43 77 93 86 85 53 42 41 32 24 21 27 28 26 20 11 20 34 31 46 54 65 66 65 67 88 90 82 84 62 51 55 83 82 79 327 174 237 270 150 198 132 331 239 289 321 318 299 249 221 233 237 232 224 214 216 233 239 252 244 249
21 21 21 22 20 21 26 26 30 30 27 28 23 30 29 31 29 29 26 25 22 19 34 51 56 53 70 61 75 93 69 76 72 49 37 38 34 26 21 21 19 19 16 25 41 33 50 62 63 84 90 107 37 3 83 6 145 187 175 218 274 18 287 152 190 199 251 71 95 353 303 339 332 327 271 256 238 226 216 225 228 229 240 235 231
21 13 15 17 24 25 29 30 26 32 31 28 24 28 31 31 28 29 27 25 23 17 24 26 71 87 78 84 68 76 73 36 49 40 30 31 29 25 28 17 20 28 22 21 22 23 28 42 40 51 68 88 138 263 230 262 148 127 200 249 283 289 250 260 196 219 205 131 295 231 259 17 315 294 298 288 230 222 213 228 222 227 234 237 219
18 15 15 19 25 25 26 27 27 37 34 30 22 25 34 34 31 32 31 28 28 24 26 25 35 37 45 60 59 53 35 32 32 24 22 24 27 24 13 21 26 31 25 25 26 24 22 19 22 23 34 21 67 53 284 252 222 203 198 208 202 231 271 266 208 206 230 240 209 340 310 294 232 271 340 281 340 290 252 244 252 241 244 236 232
36 24 18 18 27 26 29 31 34 35 35 25 22 26 30 35 37 36 35 31 26 26 30 47 51 51 44 41 38 38 41 27 26 11 6 17 9 342 24 25 27 30 27 25 25 22 22 18 17 20 17 4 8 311 290 335 299 253 220 203 232 226 246 287 294 198 231 242 260 269 221 274 307 272 351 291 324 223 264 279 247 252 263 255 247
27 31 24 32 23 35 33 33 28 37 29 21 30 32 35 39 39 42 41 34 26 29 33 49 59 57 62 66 63 57 59 35 22 20 23 7 18 28 20 23 26 26 22 24 20 20 20 18 15 16 17 11 0 7 344 315 294 261 269 190 228 250 201 257 263 268 179 252 246 253 268 235 179 313 272 334 298 317 290 266 261 250 236 231 240
39 36 31 29 33 36 37 26 28 30 20 33 38 34 37 38 43 44 43 40 31 26 43 45 61 58 62 62 58 56 57 47 24 21 25 23 35 25 23 22 21 25 21 19 18 16 15 15 13 15 20 9 2 358 336 325 328 328 335 244 241 222 214 225 262 267 255 269 198 242 250 261 245 261 246 251 278 296 289 299 249 259 243 236 234
26 38 36 33 29 28 28 32 18 26 26 35 37 37 41 44 48 49 46 41 32 33 46 50 60 62 64 61 63 49 53 47 41 40 37 26 42 26 28 21 22 23 24 21 18 16 15 11 11 14 15 8 2 1 354 349 343 332 334 341 313 296 232 243 266 269 264 261 279 269 243 254 256 236 248 222 256 278 280 282 285 314 259 241 248
45 37 28 28 23 30 23 26 32 25 20 30 38 42 43 46 49 52 45 42 34 37 47 54 56 59 59 54 61 52 43 43 47 40 34 27 39 30 26 27 20 22 19 21 18 13 11 9 11 13 9 6 9 7 3 4 358 349 336 328 331 321 308 292 249 267 273 279 257 281 278 288 282 274 222 231 254 225 265 278 286 292 287 261 216
26 32 31 27 11 28 28 40 23 24 22 32 37 39 42 49 50 56 45 44 38 41 50 56 59 59 62 60 58 54 45 48 46 38 32 35 37 28 27 22 25 27 19 23 26 16 12 13 10 5 5 7 9 9 6 358 355 351 346 348 343 331 315 328 319 294 287 289 284 262 259 254 256 258 254 222 231 260 274 271 271 250 253 281 244
26 37 30 22 27 25 32 40 30 22 32 34 34 36 44 49 56 64 47 38 35 35 49 51 56 58 61 60 59 53 51 51 52 46 33 38 31 29 18 25 22 23 25 22 20 14 14 13 12 12 12 6 6 354 1 2 357 1 5 4 344 328 325 326 315 307 297 290 287 275 263 259 264 261 267 255 248 260 263 280 285 298 281 252 264
39 40 34 29 39 33 37 31 36 36 38 34 37 42 49 55 56 66 50 35 36 36 53 53 55 51 50 53 54 50 49 50 48 49 34 39 30 28 25 24 14 19 13 13 7 8 10 13 13 12 9 7 359 3 0 3 5 6 5 357 353 351 340 330 316 291 288 287 279 285 278 276 264 264 266 258 262 266 268 279 280 283 280 291 281
17 22 33 39 32 30 31 43 45 41 42 49 51 59 58 63 61 69 58 37 30 45 55 65 62 61 58 63 63 62 63 61 58 62 53 59 52 54 45 37 31 28 11 12 349 353 7 5 3 6 6 4 8 7 7 4 4 4 2 2 350 341 342 339 314 300 302 280 283 290 288 279 275 274 265 267 263 266 266 262 282 272 271 284 288
18 45 40 28 17 15 24 29 43 46 53 53 56 65 71 68 67 72 69 47 55 55 56 64 66 65 66 70 71 69 75 72 74 77 81 82 83 87 82 77 65 30 21 346 356 5 6 7 8 10 4 2 3 5 5 5 6 0 5 354 349 351 342 336 330 328 316 307 302 281 283 290 283 277 274 264 252 244 249 260 261 283 283 276 285
101 121 108 274 256 292 354 15 30 46 50 53 58 67 74 78 85 86 87 82 71 66 63 68 69 73 68 67 66 68 71 81 73 68 64 71 60 58 45 43 30 13 359 2 1 8 5 2 2 3 360 1 0 358 357 358 355 359 355 360 351 349 346 340 332 332 314 305 295 293 297 280 281 281 276 271 264 254 252 253 245 258 274 285 279
202 201 202 200 208 222 218 178 82 68 69 68 65 62 77 77 77 78 83 74 62 63 69 70 70 63 57 63 58 54 52 50 47 39 34 36 49 38 33 16 17 15 1 1 356 356 358 360 357 351 352 352 352 352 349 349 348 351 351 346 348 344 340 331 325 328 310 307 306 294 279 281 280 281 283 275 269 272 260 252 236 244 246 263 280
197 197 199 190 181 176 178 184 149 118 98 80 71 68 69 71 65 64 50 48 39 46 48 48 49 49 41 37 39 43 39 34 33 28 20 26 21 22 16 17 12 4 10 360 355 347 339 336 334 328 322 329 330 328 331 332 341 343 338 334 331 338 336 328 324 312 312 315 306 307 293 286 276 278 274 273 272 266 267 259 251 245 232 249 261
193 200 195 193 182 173 168 157 151 104 81 81 66 57 53 49 51 59 56 47 40 37 35 36 39 40 37 30 28 20 15 16 11 15 17 22 11 7 9 357 359 3 1 359 358 356 355 352 352 342 330 321 295 301 294 301 297 307 309 307 318 335 334 327 321 325 306 306 301 302 297 285 282 280 281 282 275 267 259 258 258 249 247 241 257
195 191 191 185 187 184 168 164 132 105 95 78 74 58 52 42 53 50 49 39 37 35 32 38 19 28 15 8 359 357 351 11 4 21 5 2 348 358 356 353 340 340 345 348 352 345 343 343 340 341 338 337 337 331 326 318 305 295 294 303 298 306 308 306 309 316 318 317 311 301 287 281 285 282 279 276 277 274 265 264 255 252 252 244 248
194 188 184 178 181 196 169 151 124 105 89 83 74 75 43 42 58 42 53 28 31 7 33 49 42 28 27 317 287 311 313 337 326 2 358 321 319 315 294 280 316 309 303 313 311 305 300 305 310 313 316 317 323 324 328 333 333 329 328 323 316 320 316 308 307 307 307 313 313 308 303 294 285 282 274 274 271 267 269 264 257 256 258 251 240
192 189 176 170 177 184 159 117 89 89 94 102 31 58 61 64 18 3 20 347 354 310 341 338 56 70 317 307 315 314 318 328 337 324 334 319 318 309 291 322 304 295 292 296 297 299 294 293 299 297 298 302 301 303 308 317 318 321 320 324 326 326 322 315 314 305 305 306 304 304 299 300 304 291 284 277 270 277 272 272 270 252 254 260 233
195 184 171 168 174 177 180 180 183 185 212 264 309 266 255 263 285 273 233 268 223 259 312 356 346 345 323 334 328 313 328 312 324 310 317 310 304 303 299 295 289 288 303 293 292 296 297 301 301 298 301 302 302 303 305 310 309 310 309 308 310 311 310 310 312 306 302 300 297 291 288 289 298 298 291 280 274 268 265 263 266 260 259 259 249
190 170 170 173 175 177 173 196 220 246 250 251 254 267 269 268 266 298 265 263 280 284 302 322 316 307 307 324 309 310 331 320 313 293 299 288 294 291 296 297 279 292 292 291 294 291 295 294 292 294 293 293 298 296 297 298 297 299 301 302 305 307 300 295 290 292 296 296 290 291 287 284 283 284 284 286 280 269 263 260 261 261 255 259 256
176 173 176 175 174 176 196 205 210 229 243 244 243 247 246 254 261 270 291 336 350 354 349 341 352 319 319 327 314 328 319 304 286 286 277 282 284 286 289 279 285 284 276 283 284 276 281 282 283 284 290 290 290 292 294 293 291 287 288 292 296 297 296 294 291 287 282 282 281 277 281 285 279 275 277 277 278 278 269 260 258 261 257 256 261
174 178 171 189 197 197 206 218 224 225 221 225 234 247 292 321 356 8 312 309 301 286 231 249 234 241 276 300 293 312 312 308 308 311 308 306 309 311 307 308 300 295 295 288 283 290 282 284 286 285 284 286 286 285 285 288 289 289 284 283 284 282 282 283 285 285 283 278 275 275 275 274 271 266 270 273 271 272 275 270 265 263 259 257 261
178 182 189 182 192 214 218 222 224 226 232 252 309 338 289 264 290 309 259 235 268 305 318 350 308 302 310 326 338 340 330 321 315 304 304 305 302 297 299 293 293 286 289 293 289 285 285 279 282 285 284 285 287 284 283 284 286 286 283 283 282 281 279 279 278 279 281 280 276 274 274 271 268 264 267 268 272 269 266 265 264 267 266 264 263
172 173 178 194 207 216 218 225 230 239 245 243 214 209 211 193 123 55 27 103 210 144 128 117 115 102 39 2 360 344 347 338 324 319 314 315 317 316 310 302 305 306 301 301 304 304 300 294 284 283 282 281 282 285 285 282 279 277 278 274 274 277 280 278 277 275 276 276 277 276 275 274 270 269 266 268 264 267 264 266 262 262 262 263 261
178 198 200 202 211 213 220 223 228 226 229 220 206 192 141 114 103 95 91 61 64 90 69 60 41 33 11 354 349 352 351 347 340 344 347 345 342 332 326 324 322 318 316 313 312 310 310 309 304 298 299 296 291 290 292 294 287 283 270 270 275 276 277 281 281 279 276 275 273 272 272 272 271 269 263 259 259 255 263 272 266 259 261 259 261
192 203 207 210 213 212 222 225 232 222 225 185 153 125 111 108 89 77 71 25 59 55 55 36 29 12 358 353 350 349 349 346 350 351 349 345 341 338 334 330 326 322 319 317 315 313 309 308 310 310 307 303 298 296 303 307 307 303 303 302 296 291 287 283 282 282 279 275 272 272 270 270 272 272 272 269 268 267 262 254 261 268 264 260 258
202 208 207 207 209 203 188 183 188 174 162 140 122 119 113 96 90 75 55 21 50 43 38 31 9 0 350 354 356 351 352 357 353 348 346 343 337 335 329 324 321 322 320 318 318 314 312 314 314 312 310 306 302 302 311 313 312 312 311 305 298 294 289 286 282 280 281 282 278 273 272 272 272 272 273 273 271 270 268 267 264 258 253 251 261
207 222 228 188 181 187 178 179 155 125 112 117 115 105 87 65 48 43 29 24 34 34 27 11 359 359 359 357 357 3 1 352 351 345 338 334 329 326 322 317 315 318 317 316 313 310 313 318 314 311 306 304 304 308 314 315 313 312 308 303 299 294 292 288 286 282 280 280 281 280 276 273 269 271 274 275 272 268 269 268 266 264 264 261 253
207 202 196 193 191 193 189 180 156 144 124 108 113 97 81 65 45 23 38 32 34 30 29 9 357 354 349 1 11 3 349 346 343 338 331 329 326 319 316 318 314 314 314 313 314 316 313 317 315 311 308 307 305 311 315 313 311 309 306 304 295 288 287 286 285 282 282 282 283 283 282 275 272 278 280 279 279 279 274 272 271 270 265 262 263
206 193 187 192 192 189 183 172 150 124 102 91 84 93 88 74 65 29 82 25 51 25 36 3 359 350 18 17 6 355 344 337 335 332 329 324 321 314 313 312 310 313 313 310 311 310 311 313 314 313 308 306 305 312 312 310 310 308 305 303 293 289 284 282 284 285 286 285 284 285 286 284 282 278 274 277 278 277 278 276 272 266 264 261 259
192 206 215 192 184 170 154 148 137 126 113 96 73 74 75 76 64 56 34 30 24 19 12 2 12 28 24 4 2 344 335 328 326 323 321 316 313 313 315 316 315 312 313 312 313 314 312 314 314 313 307 302 303 309 310 310 308 305 303 303 295 290 286 284 282 281 283 283 284 283 282 283 284 281 276 280 280 279 277 274 271 268 264 263 260
202 192 209 185 179 176 173 159 130 115 104 96 93 85 86 49 47 45 30 20 15 8 344 5 25 10 4 356 350 336 325 320 316 314 311 310 311 312 315 318 311 306 301 302 302 304 307 311 312 311 305 300 300 307 308 307 305 304 304 301 295 290 286 281 278 277 278 281 284 285 288 288 288 287 287 287 286 285 283 281 278 275 272 268 264
203 192 202 196 183 162 143 125 123 117 112 103 93 78 77 51 36 23 30 0 4 342 342 23 360 353 354 350 343 328 318 313 311 309 307 307 311 312 310 309 304 303 305 307 305 304 308 307 306 304 301 297 298 306 308 306 305 304 304 298 292 286 284 285 284 284 281 275 269 266 267 273 275 276 282 285 286 284 281 277 274 273 271 268 266
191 140 111 120 120 115 124 132 129 114 107 99 88 78 72 58 35 9 7 327 328 303 31 4 340 342 342 334 323 315 309 308 307 304 305 303 303 298 295 302 298 303 302 303 304 302 299 297 298 298 297 297 298 303 305 304 303 302 300 297 295 292 289 290 293 292 294 294 294 297 297 297 296 293 294 291 288 286 277 272 271 273 275 272 269
181 167 154 153 148 142 138 128 126 124 114 103 96 93 89 82 60 288 292 279 279 323 6 337 320 327 318 312 304 302 301 302 302 300 302 302 303 299 297 296 287 289 291 298 298 297 294 290 285 287 297 297 294 297 302 301 300 299 299 292 289 287 289 291 295 294 293 293 294 296 294 292 289 289 290 289 287 285 280 279 277 273 270 267 267
169 166 160 147 136 125 134 139 137 128 114 107 93 92 105 150 216 236 256 259 246 27 321 322 306 306 297 295 297 297 296 298 300 300 299 296 299 300 298 298 294 288 291 294 291 289 290 291 289 287 288 289 290 291 296 298 298 297 297 295 288 288 290 291 289 289 293 289 285 283 284 285 288 292 294 295 296 293 292 290 285 277 272 270 271
175 168 145 143 149 147 145 136 121 117 114 107 101 109 156 158 205 238 248 238 34 330 312 302 300 293 289 290 292 292 294 292 287 293 297 296 297 296 299 298 297 297 290 290 292 288 287 287 288 284 285 286 285 290 293 296 296 296 296 296 288 283 283 284 284 283 278 281 280 281 288 294 295 292 290 289 288 287 286 284 283 285 285 287 287
133 150 149 138 128 119 113 104 107 114 116 112 117 134 154 190 221 243 233 84 312 299 301 295 291 291 291 293 292 290 284 286 290 292 295 293 292 289 290 294 294 295 295 292 293 290 289 288 285 281 284 282 286 289 290 291 293 294 295 293 291 284 284 282 281 275 282 288 292 293 288 287 289 289 289 288 287 286 284 280 275 277 280 283 284
151 146 150 140 136 134 129 128 123 122 122 123 112 123 186 229 245 255 120 338 309 303 293 292 295 292 291 291 289 287 287 285 285 285 284 289 291 291 287 286 291 294 293 292 293 292 292 293 291 284 281 278 279 279 286 287 290 293 294 294 292 292 291 290 288 289 289 285 285 285 283 287 288 287 285 284 284 286 288 286 287 289 288 287 287
114 131 145 137 125 125 122 121 121 118 112 111 113 91 240 272 271 326 348 331 313 294 302 300 292 289 289 287 283 283 279 278 278 280 278 280 287 286 286 288 289 291 294 295 291 291 291 291 294 294 287 282 275 275 280 286 288 289 294 295 294 293 294 289 284 279 281 279 279 273 275 281 285 288 291 294 294 294 294 294 294 292 292 292 290
147 135 127 123 134 138 127 126 126 123 131 117 117 91 295 283 300 7 325 317 311 312 310 297 290 289 286 282 281 276 276 274 270 271 279 282 284 286 293 293 290 289 288 289 289 287 287 290 291 289 289 285 280 276 273 276 282 285 289 291 292 291 291 291 289 282 275 273 279 285 290 294 296 296 296 297 298 294 289 287 287 286 288 289 293
122 119 118 117 114 106 122 140 146 144 124 128 126 174 275 274 320 326 309 307 310 314 306 293 290 287 285 287 289 283 273 269 269 263 261 268 278 291 293 295 292 284 284 286 287 286 283 284 284 282 283 282 281 277 274 271 268 271 275 280 283 285 287 286 284 283 284 285 287 289 290 293 294 290 288 276 261 270 280 287 292 296 298 293 288
149 140 129 123 130 136 149 155 166 172 142 199 225 258 246 285 295 296 304 313 316 303 294 292 290 291 289 289 288 293 293 281 273 273 265 269 279 280 286 290 287 286 285 282 282 283 284 282 280 282 283 285 283 281 280 279 276 275 269 269 273 272 273 275 276 273 274 276 275 275 273 272 275 283 287 290 292 294 293 289 279 273 269 270 271
130 136 133 128 133 145 153 158 175 181 162 248 281 280 278 288 284 287 293 312 302 287 287 289 291 291 291 290 289 288 293 299 293 291 298 296 282 277 281 283 285 282 283 283 280 280 278 278 280 283 283 283 282 282 284 285 285 277 273 272 263 260 259 248 260 262 257 260 263 266 270 268 271 270 275 267 266 270 275 280 276 272 268 266 271
139 142 143 142 143 140 150 155 206 199 241 285 284 286 290 287 287 294 298 304 288 287 288 291 289 292 290 289 288 291 294 298 302 297 281 278 293 294 282 269 263 255 248 254 255 254 261 266 264 255 265 254 280 287 279 296 295 300 301 301 297 289 279 274 267 278 282 273 267 276 272 281 280 284 286 285 282 274 271 271 275 273 270 270 270
128 121 118 119 128 141 154 171 229 232 277 288 295 295 289 281 285 281 284 292 293 298 297 292 292 292 292 295 297 298 299 300 300 305 307 297 283 294 295 294 292 292 293 293 293 290 292 295 294 287 286 289 294 296 301 305 306 305 304 306 307 307 307 305 303 307 314 309 299 292 296 296 296 299 294 291 287 284 282 281 275 280 281 277 270
137 119 120 130 149 145 157 180 217 214 245 268 282 287 288 288 279 284 286 288 296 301 296 293 299 294 298 302 302 303 302 301 301 305 305 306 309 306 304 301 296 297 300 302 302 299 300 300 301 303 304 301 300 302 304 304 305 308 310 311 310 308 307 308 312 317 321 313 311 309 302 298 293 293 289 286 286 286 282 282 283 280 276 276 278